FW5165 Weather Reports


time (UTC)temp
F
wind
direction
speed
knots
gust
knots
rain 1hr
in
rain 24hr
in
rain mn
in
humidity
%
barometer
mb
20220525134011 70 121 0.0 1.7 0.00 0.00 0.00 43 1009.8
20220525133511 70 121 0.9 1.7 0.00 0.00 0.00 42 1009.8
20220525133010 70 90 0.0 1.7 0.00 0.00 0.00 42 1009.9
20220525132511 70 90 0.9 3.5 0.00 0.00 0.00 42 1009.8
20220525132008 71 90 0.0 3.5 0.00 0.00 0.00 40 1009.7
20220525131512 71 94 0.0 3.5 0.00 0.00 0.00 40 1009.6
20220525131008 71 94 0.9 2.6 0.00 0.00 0.00 40 1009.6
20220525130508 71 95 0.9 1.7 0.00 0.00 0.00 41 1009.6
20220525130009 71 96 0.9 3.5 0.00 0.00 0.00 41 1009.6
20220525125508 71 95 0.9 3.5 0.00 0.00 0.00 41 1009.6
20220525125009 70 95 0.9 4.3 0.00 0.00 0.00 42 1009.6
20220525124505 70 95 1.7 4.3 0.00 0.00 0.00 43 1009.7
20220525124009 70 137 0.9 2.6 0.00 0.00 0.00 43 1009.7
20220525123507 70 140 0.9 3.5 0.00 0.00 0.00 43 1009.6
20220525123005 70 82 0.9 2.6 0.00 0.00 0.00 43 1009.5
20220525122504 70 86 0.9 2.6 0.00 0.00 0.00 44 1009.6
20220525122004 70 86 0.9 2.6 0.00 0.00 0.00 43 1009.5
20220525121504 70 86 0.9 3.5 0.00 0.00 0.00 44 1009.6
20220525121005 70 89 1.7 3.5 0.00 0.00 0.00 44 1009.6
20220525120504 70 92 0.9 3.5 0.00 0.00 0.00 44 1009.6
20220525120003 70 150 0.0 1.7 0.00 0.00 0.00 44 1009.6
20220525115502 70 153 0.0 3.5 0.00 0.00 0.00 44 1009.5
20220525115002 70 153 0.9 3.5 0.00 0.00 0.00 44 1009.4
20220525114502 70 188 0.0 1.7 0.00 0.00 0.00 43 1009.4
20220525114101 70 188 0.9 1.7 0.00 0.00 0.00 44 1009.4
20220525113559 70 190 0.0 0.9 0.00 0.00 0.00 44 1009.4
20220525113100 70 190 0.0 1.7 0.00 0.00 0.00 44 1009.3
20220525112601 70 190 0.0 3.5 0.00 0.00 0.00 45 1009.3
20220525112057 71 191 0.9 2.6 0.00 0.00 0.00 44 1009.3
20220525111606 71 53 0.0 3.5 0.00 0.00 0.00 43 1009.2
20220525111055 71 53 0.9 2.6 0.00 0.00 0.00 43 1009.2
20220525110554 72 55 0.9 2.6 0.00 0.00 0.00 42 1009.3
20220525110054 72 21 0.0 3.5 0.00 0.00 0.00 42 1009.2
20220525105556 72 21 1.7 3.5 0.00 0.00 0.00 42 1009.2
20220525105052 72 21 0.0 0.0 0.00 0.00 0.00 42 1009.2
20220525104553 72 21 0.0 0.9 0.00 0.00 0.00 42 1009.1
20220525104054 72 21 0.0 1.7 0.00 0.00 0.00 42 1009.1
20220525103551 73 21 0.0 1.7 0.00 0.00 0.00 41 1009.0
20220525103050 73 21 0.0 1.7 0.00 0.00 0.00 41 1009.0
20220525102549 73 21 0.0 1.7 0.00 0.00 0.00 41 1008.9
20220525102048 73 21 0.0 4.3 0.00 0.00 0.00 41 1008.8
20220525101547 73 44 1.7 4.3 0.00 0.00 0.00 41 1008.7
20220525101050 73 51 0.9 5.2 0.00 0.00 0.00 41 1008.7
20220525100549 73 59 2.6 5.2 0.00 0.00 0.00 41 1008.7
20220525100045 74 34 1.7 4.3 0.00 0.00 0.00 40 1008.9
20220525095545 74 39 0.0 3.5 0.00 0.00 0.00 40 1008.8
20220525095047 74 50 0.9 2.6 0.00 0.00 0.00 39 1008.8
20220525094554 74 49 0.9 4.3 0.00 0.00 0.00 39 1008.8
20220525094044 74 53 1.7 4.3 0.00 0.00 0.00 39 1008.8
20220525093543 75 106 1.7 4.3 0.00 0.00 0.00 38 1008.7
20220525093043 75 57 1.7 2.6 0.00 0.00 0.00 39 1008.6
20220525092541 75 86 1.7 3.5 0.00 0.00 0.00 38 1008.6
20220525092042 75 67 1.7 3.5 0.00 0.00 0.00 38 1008.6
20220525091540 75 81 0.9 4.3 0.00 0.00 0.00 38 1008.5
20220525091041 75 60 2.6 4.3 0.00 0.00 0.00 38 1008.5
20220525090539 75 38 1.7 4.3 0.00 0.00 0.00 38 1008.6
20220525090038 75 86 1.7 4.3 0.00 0.00 0.00 38 1008.5
20220525085538 75 96 1.7 4.3 0.00 0.00 0.00 38 1008.6
20220525085037 76 59 1.7 5.2 0.00 0.00 0.00 38 1008.5
20220525084537 76 107 2.6 5.2 0.00 0.00 0.00 37 1008.5
20220525084036 76 89 1.7 2.6 0.00 0.00 0.00 37 1008.6
20220525083538 76 74 0.9 1.7 0.00 0.00 0.00 37 1008.6
20220525083036 76 47 0.0 3.5 0.00 0.00 0.00 37 1008.7
20220525082537 76 47 0.9 3.5 0.00 0.00 0.00 37 1008.7
20220525082038 76 52 0.9 2.6 0.00 0.00 0.00 37 1008.7
20220525081537 76 65 0.9 1.7 0.00 0.00 0.00 37 1008.8
20220525081033 76 58 0.9 3.5 0.00 0.00 0.00 37 1008.8
20220525080536 76 58 0.0 3.5 0.00 0.00 0.00 37 1008.8
20220525080032 76 49 0.9 1.7 0.00 0.00 0.00 37 1008.9
20220525075536 76 48 0.9 1.7 0.00 0.00 0.00 36 1008.8
20220525075032 76 52 0.0 4.3 0.00 0.00 0.00 36 1008.8
20220525074531 76 44 0.9 4.3 0.00 0.00 0.00 36 1008.8
20220525074029 76 78 0.0 3.5 0.00 0.00 0.00 36 1008.9
20220525073533 76 90 0.9 4.3 0.00 0.00 0.00 36 1008.9
20220525073029 77 71 0.9 2.6 0.00 0.00 0.00 36 1008.9
20220525072528 77 68 0.9 2.6 0.00 0.00 0.00 36 1008.9
20220525072037 77 71 1.7 3.5 0.00 0.00 0.00 36 1008.9
20220525071532 77 90 1.7 3.5 0.00 0.00 0.00 36 1009.0
20220525071029 77 100 1.7 3.5 0.00 0.00 0.00 36 1009.1
20220525070527 77 90 1.7 2.6 0.00 0.00 0.00 35 1009.1
20220525070024 77 74 0.9 2.6 0.00 0.00 0.00 35 1009.2
20220525065523 77 74 0.9 2.6 0.00 0.00 0.00 35 1009.2
20220525065026 77 76 0.9 3.5 0.00 0.00 0.00 35 1009.2
20220525064525 77 69 1.7 3.5 0.00 0.00 0.00 35 1009.2
20220525064022 77 58 0.9 3.5 0.00 0.00 0.00 35 1009.3
20220525063523 78 60 1.7 4.3 0.00 0.00 0.00 35 1009.2
20220525063022 78 80 1.7 3.5 0.00 0.00 0.00 35 1009.3
20220525062526 78 85 0.9 3.5 0.00 0.00 0.00 34 1009.2
20220525062022 78 90 0.9 4.3 0.00 0.00 0.00 34 1009.3
20220525061522 78 43 1.7 4.3 0.00 0.00 0.00 34 1009.4
20220525061023 79 128 0.9 3.5 0.00 0.00 0.00 33 1009.4
20220525060522 80 100 0.9 3.5 0.00 0.00 0.00 32 1009.3
20220525060021 81 102 0.9 2.6 0.00 0.00 0.00 31 1009.3
20220525055521 81 102 0.9 1.7 0.00 0.00 0.00 31 1009.5
20220525055021 81 102 0.9 3.5 0.00 0.00 0.00 31 1009.4
20220525054521 80 102 0.9 2.6 0.00 0.00 0.00 31 1009.4
20220525054024 80 102 0.0 3.5 0.00 0.00 0.00 31 1009.4
20220525053522 80 102 0.9 2.6 0.00 0.00 0.00 31 1009.6
20220525053025 81 102 0.9 2.6 0.00 0.00 0.00 30 1009.5
20220525052525 82 146 0.0 3.5 0.00 0.00 0.00 30 1009.4
20220525052025 83 34 0.0 1.7 0.00 0.00 0.00 30 1009.4
20220525051520 83 34 0.0 0.9 0.00 0.00 0.00 29 1009.4
20220525051020 83 34 0.0 0.9 0.00 0.00 0.00 29 1009.4
20220525050520 83 34 0.0 0.9 0.00 0.00 0.00 29 1009.3
20220525050025 83 31 0.0 0.9 0.00 0.00 0.00 29 1009.4
20220525045519 83 31 0.0 0.9 0.00 0.00 0.00 29 1009.3
20220525045022 83 31 0.0 0.9 0.00 0.00 0.00 29 1009.3
20220525044519 83 33 0.0 0.9 0.00 0.00 0.00 29 1009.2
20220525044018 83 34 0.0 0.9 0.00 0.00 0.00 28 1009.1
20220525043522 84 33 0.0 1.7 0.00 0.00 0.00 28 1009.1
20220525043024 84 33 0.0 1.7 0.00 0.00 0.00 28 1009.2
20220525042519 84 348 0.0 1.7 0.00 0.00 0.00 27 1009.2
20220525042018 84 348 0.0 1.7 0.00 0.00 0.00 27 1009.2
20220525041518 84 348 0.0 1.7 0.00 0.00 0.00 28 1009.2
20220525041017 85 348 0.0 1.7 0.00 0.00 0.00 27 1009.2
20220525040519 85 348 0.0 1.7 0.00 0.00 0.00 27 1009.2
20220525040027 85 348 0.0 0.0 0.00 0.00 0.00 27 1009.1
20220525035519 85 348 0.0 0.0 0.00 0.00 0.00 27 1009.1
20220525035017 86 348 0.0 0.0 0.00 0.00 0.00 26 1009.1
20220525034516 86 348 0.0 1.7 0.00 0.00 0.00 26 1009.0
20220525034017 86 348 0.0 1.7 0.00 0.00 0.00 26 1009.1
20220525033518 87 348 0.0 1.7 0.00 0.00 0.00 25 1009.0
20220525031010 88 348 0.0 0.9 0.00 0.00 0.00 24 1008.8
20220525030511 88 348 0.0 1.7 0.00 0.00 0.00 23 1008.8
20220525030011 89 348 0.0 1.7 0.00 0.00 0.00 23 1008.8
20220525025514 89 348 0.0 0.9 0.00 0.00 0.00 23 1008.8
20220525025010 89 348 0.0 1.7 0.00 0.00 0.00 22 1008.7
20220525024509 89 348 0.0 3.5 0.00 0.00 0.00 22 1008.7
20220525024011 90 348 0.9 4.3 0.00 0.00 0.00 22 1008.8
20220525023509 90 348 0.9 4.3 0.00 0.00 0.00 23 1008.9
20220525023008 90 348 0.9 6.1 0.00 0.00 0.00 21 1008.9
20220525022508 90 355 2.6 6.1 0.00 0.00 0.00 21 1008.9
20220525022008 90 337 2.6 7.0 0.00 0.00 0.00 21 1008.9
20220525021508 91 337 2.6 9.6 0.00 0.00 0.00 20 1008.9
20220525021007 91 343 5.2 8.7 0.00 0.00 0.00 20 1008.9
20220525020507 91 336 4.3 7.8 0.00 0.00 0.00 21 1008.9
20220525020008 91 338 1.7 7.8 0.00 0.00 0.00 21 1008.8
20220525015506 91 335 4.3 9.6 0.00 0.00 0.00 20 1008.9
20220525015010 91 336 4.3 9.6 0.00 0.00 0.00 19 1008.9
20220525014505 91 330 5.2 8.7 0.00 0.00 0.00 19 1008.9
20220525014006 91 341 1.7 11.3 0.00 0.00 0.00 20 1008.9
20220525013505 92 337 8.7 11.3 0.00 0.00 0.00 19 1009.1
20220525013005 92 317 4.3 8.7 0.00 0.00 0.00 20 1009.1
20220525012509 92 355 5.2 8.7 0.00 0.00 0.00 19 1009.0
20220525012004 92 341 5.2 9.6 0.00 0.00 0.00 19 1009.0
20220525011504 92 340 5.2 9.6 0.00 0.00 0.00 19 1009.0
20220525011006 93 331 3.5 10.4 0.00 0.00 0.00 19 1008.9
20220525010504 93 341 5.2 10.4 0.00 0.00 0.00 18 1009.0
20220525010003 93 338 2.6 11.3 0.00 0.00 0.00 20 1008.9
20220525005503 92 331 5.2 12.2 0.00 0.00 0.00 19 1009.0
20220525005002 93 336 5.2 12.2 0.00 0.00 0.00 18 1009.1
20220525004501 93 329 4.3 9.6 0.00 0.00 0.00 18 1009.1
20220525004100 92 336 5.2 11.3 0.00 0.00 0.00 19 1009.2
20220525003559 93 324 5.2 11.3 0.00 0.00 0.00 18 1009.2
20220525003102 93 330 6.1 10.4 0.00 0.00 0.00 19 1009.3
20220525002558 93 16 2.6 7.0 0.00 0.00 0.00 19 1009.4
20220525002058 93 305 3.5 7.8 0.00 0.00 0.00 18 1009.4
20220525001603 93 303 2.6 7.8 0.00 0.00 0.00 18 1009.3
20220525001057 93 310 0.9 8.7 0.00 0.00 0.00 19 1009.4
20220525000557 93 10 2.6 8.7 0.00 0.00 0.00 19 1009.4
20220525000102 92 337 2.6 10.4 0.00 0.00 0.00 18 1009.5
20220524235559 92 331 5.2 10.4 0.00 0.00 0.00 18 1009.5
20220524235056 93 286 3.5 8.7 0.00 0.00 0.00 18 1009.6
20220524234555 92 342 2.6 10.4 0.00 0.00 0.00 18 1009.6
20220524234055 92 338 7.0 11.3 0.00 0.00 0.00 19 1009.6
20220524233555 92 336 6.1 11.3 0.00 0.00 0.00 18 1009.6
20220524233053 92 321 3.5 9.6 0.00 0.00 0.00 18 1009.6
20220524232553 92 347 5.2 10.4 0.00 0.00 0.00 18 1009.6
20220524232053 92 290 5.2 10.4 0.00 0.00 0.00 19 1009.6
20220524231557 92 315 4.3 8.7 0.00 0.00 0.00 16 1009.7
20220524231053 92 323 3.5 11.3 0.00 0.00 0.00 18 1009.7
20220524230557 92 328 4.3 11.3 0.00 0.00 0.00 17 1009.7
20220524230104 92 315 1.7 11.3 0.00 0.00 0.00 16 1009.8
20220524225555 92 310 6.1 11.3 0.00 0.00 0.00 15 1009.9
20220524225054 92 283 3.5 9.6 0.00 0.00 0.00 16 1009.9
20220524224603 92 338 3.5 7.8 0.00 0.00 0.00 16 1009.9
20220524224051 92 252 3.5 11.3 0.00 0.00 0.00 16 1009.9
20220524223549 92 338 2.6 10.4 0.00 0.00 0.00 16 1010.0
20220524223052 92 339 6.1 10.4 0.00 0.00 0.00 16 1010.1
20220524222548 92 341 3.5 10.4 0.00 0.00 0.00 17 1010.1
20220524222047 91 299 2.6 8.7 0.00 0.00 0.00 15 1010.2
20220524221546 91 323 2.6 9.6 0.00 0.00 0.00 18 1010.2
20220524221046 90 360 5.2 15.6 0.00 0.00 0.00 17 1010.3
20220524220546 90 9 6.1 13.9 0.00 0.00 0.00 17 1010.6
20220524220044 90 340 6.1 13.9 0.00 0.00 0.00 16 1010.6
20220524215544 90 9 7.8 13.9 0.00 0.00 0.00 18 1010.6
20220524215046 90 350 7.0 10.4 0.00 0.00 0.00 16 1010.8
20220524214557 91 340 3.5 10.4 0.00 0.00 0.00 18 1010.8
20220524214041 90 20 6.1 13.0 0.00 0.00 0.00 19 1010.7
20220524213542 90 338 7.8 13.0 0.00 0.00 0.00 19 1010.9
20220524213041 90 333 1.7 12.2 0.00 0.00 0.00 21 1010.9
20220524212544 90 336 2.6 12.2 0.00 0.00 0.00 19 1010.9
20220524212044 90 360 7.8 13.9 0.00 0.00 0.00 20 1010.9
20220524211541 90 350 1.7 13.9 0.00 0.00 0.00 20 1010.9
20220524211041 90 347 7.0 12.2 0.00 0.00 0.00 19 1010.9
20220524210544 89 302 3.5 9.6 0.00 0.00 0.00 22 1010.9
20220524210037 89 304 2.6 17.4 0.00 0.00 0.00 21 1010.9
20220524205538 88 318 2.6 12.2 0.00 0.00 0.00 23 1010.9
20220524205038 88 24 4.3 13.9 0.00 0.00 0.00 23 1010.9
20220524204539 88 323 8.7 13.9 0.00 0.00 0.00 23 1011.0
20220524204036 88 339 7.0 13.0 0.00 0.00 0.00 22 1011.0
20220524203537 88 278 0.9 7.8 0.00 0.00 0.00 27 1011.1
20220524203035 87 265 3.5 7.8 0.00 0.00 0.00 30 1011.1
20220524202535 87 262 4.3 8.7 0.00 0.00 0.00 31 1011.3
20220524202034 87 265 3.5 12.2 0.00 0.00 0.00 30 1011.3
20220524201534 86 333 5.2 12.2 0.00 0.00 0.00 26 1011.3
20220524201033 86 336 6.1 10.4 0.00 0.00 0.00 26 1011.3
20220524200534 86 333 4.3 8.7 0.00 0.00 0.00 25 1011.4
20220524200031 87 287 4.3 7.8 0.00 0.00 0.00 27 1011.4
20220524195531 86 297 2.6 8.7 0.00 0.00 0.00 27 1011.4
20220524195029 85 333 4.3 8.7 0.00 0.00 0.00 28 1011.4
20220524194528 85 278 2.6 8.7 0.00 0.00 0.00 29 1011.5
20220524194029 85 313 3.5 8.7 0.00 0.00 0.00 28 1011.5
20220524193531 85 256 2.6 7.8 0.00 0.00 0.00 31 1011.5
20220524193030 85 255 2.6 7.8 0.00 0.00 0.00 30 1011.6
20220524192527 85 276 1.7 7.0 0.00 0.00 0.00 31 1011.6
20220524192028 85 276 2.6 6.1 0.00 0.00 0.00 31 1011.5
20220524191526 85 294 2.6 6.1 0.00 0.00 0.00 31 1011.5
20220524191029 85 211 0.9 5.2 0.00 0.00 0.00 35 1011.6
20220524190527 84 278 1.7 7.0 0.00 0.00 0.00 33 1011.6
20220524190041 83 343 2.6 7.8 0.00 0.00 0.00 33 1011.6
20220524185521 83 288 3.5 9.6 0.00 0.00 0.00 33 1011.5
20220524185021 82 273 4.3 9.6 0.00 0.00 0.00 32 1011.5
20220524184526 83 284 2.6 8.7 0.00 0.00 0.00 34 1011.7
20220524184020 82 332 1.7 10.4 0.00 0.00 0.00 34 1011.7
20220524183520 82 338 5.2 10.4 0.00 0.00 0.00 33 1011.8
20220524183019 82 333 1.7 7.8 0.00 0.00 0.00 32 1011.8
20220524182521 82 340 4.3 7.8 0.00 0.00 0.00 32 1011.8
20220524182018 82 289 1.7 5.2 0.00 0.00 0.00 33 1011.8
20220524181528 82 288 2.6 6.1 0.00 0.00 0.00 33 1011.8
20220524181016 81 323 1.7 8.7 0.00 0.00 0.00 34 1011.8
20220524180516 80 259 4.3 8.7 0.00 0.00 0.00 34 1011.8
20220524180013 80 219 2.6 8.7 0.00 0.00 0.00 38 1011.7
20220524175513 80 224 4.3 8.7 0.00 0.00 0.00 37 1011.8
20220524175012 79 207 2.6 7.0 0.00 0.00 0.00 38 1012.1
20220524174511 79 257 3.5 7.0 0.00 0.00 0.00 38 1011.9
20220524174012 78 235 3.5 7.0 0.00 0.00 0.00 37 1011.8
20220524173510 78 227 3.5 7.0 0.00 0.00 0.00 38 1011.8
20220524173013 78 229 4.3 6.1 0.00 0.00 0.00 39 1011.8
20220524172508 78 205 1.7 5.2 0.00 0.00 0.00 39 1011.8
20220524172007 77 237 2.6 6.1 0.00 0.00 0.00 41 1011.9
20220524171507 77 266 1.7 6.1 0.00 0.00 0.00 41 1011.9
20220524171113 77 217 2.6 6.1 0.00 0.00 0.00 41 1011.9
20220524170505 76 201 3.5 6.1 0.00 0.00 0.00 42 1011.9
20220524170002 76 225 0.0 5.2 0.00 0.00 0.00 43 1011.9
20220524165506 76 223 2.6 5.2 0.00 0.00 0.00 43 1012.0
20220524165001 75 252 0.9 5.2 0.00 0.00 0.00 44 1012.0
20220524164607 75 250 0.9 5.2 0.00 0.00 0.00 47 1011.9
20220524164103 74 245 0.9 5.2 0.00 0.00 0.00 45 1012.0
20220524163604 75 210 0.9 3.5 0.00 0.00 0.00 46 1012.1
20220524163100 74 219 0.9 2.6 0.00 0.00 0.00 47 1012.0
20220524162558 73 219 0.0 3.5 0.00 0.00 0.00 46 1012.1
20220524162057 73 216 0.9 3.5 0.00 0.00 0.00 47 1012.1
20220524161557 72 217 0.0 4.3 0.00 0.00 0.00 48 1012.1
20220524161059 72 226 1.7 4.3 0.00 0.00 0.00 50 1012.0
20220524160600 72 225 0.9 4.3 0.00 0.00 0.00 51 1011.9
20220524160105 72 263 0.0 5.2 0.00 0.00 0.00 52 1012.0
20220524155558 72 270 2.6 5.2 0.00 0.00 0.00 51 1011.9
20220524155054 72 228 0.9 4.3 0.00 0.00 0.00 50 1011.9
20220524154600 71 237 0.9 2.6 0.00 0.00 0.00 50 1011.8
20220524154054 71 242 0.9 3.5 0.00 0.00 0.00 52 1011.7
20220524153554 71 242 0.0 3.5 0.00 0.00 0.00 52 1011.7
20220524153055 71 251 0.9 4.3 0.00 0.00 0.00 52 1011.7
20220524152552 71 262 0.9 4.3 0.00 0.00 0.00 52 1011.6
20220524152053 71 340 0.0 2.6 0.00 0.00 0.00 52 1011.5
20220524151550 70 340 0.9 1.7 0.00 0.00 0.00 53 1011.5
20220524151050 70 340 0.0 1.7 0.00 0.00 0.00 48 1011.4
20220524150549 70 340 0.9 1.7 0.00 0.00 0.00 48 1011.4
20220524150049 69 340 0.0 0.9 0.00 0.00 0.00 48 1011.4
20220524145548 69 340 0.0 0.0 0.00 0.00 0.00 46 1011.4
20220524145048 68 340 0.0 0.9 0.00 0.00 0.00 46 1011.3
20220524144547 68 340 0.0 1.7 0.00 0.00 0.00 46 1011.4
20220524144047 67 340 0.9 1.7 0.00 0.00 0.00 48 1011.3
20220524143551 67 340 0.0 1.7 0.00 0.00 0.00 52 1011.4
20220524143047 67 340 0.0 1.7 0.00 0.00 0.00 46 1011.3
20220524142546 67 340 0.0 0.9 0.00 0.00 0.00 47 1011.3
20220524142046 66 340 0.0 0.9 0.00 0.00 0.00 47 1011.3
20220524141545 66 340 0.0 0.9 0.00 0.00 0.00 47 1011.3
20220524141046 66 340 0.0 0.0 0.00 0.00 0.00 49 1011.4
20220524140544 66 340 0.0 0.0 0.00 0.00 0.00 49 1011.3
20220524140044 65 340 0.0 0.0 0.00 0.00 0.00 48 1011.3
20220524135549 65 340 0.0 1.7 0.00 0.00 0.00 48 1011.1
20220524135045 65 340 0.0 3.5 0.00 0.00 0.00 48 1011.2
20220524134546 65 340 0.9 3.5 0.00 0.00 0.00 47 1011.3